CAPE
0 0 0 0 0 0 0 0 0 0 0 0 0 0 0 0 0 0 0 0 0 0 0 70 15 351 39 0 0 16 28 32 261 78 53 8 1 41 54 51 50 190 218 139 43 82 19 0 0
0 0 0 0 0 0 0 0 0 0 0 0 0 0 0 0 0 0 0 0 0 0 0 0 43 189 46 0 0 1 12 2 68 38 0 5 2 4 0 1 3 4 5 7 10 18 1 1 28
0 0 0 0 0 0 0 0 0 0 0 0 0 0 0 0 0 0 23 0 0 0 0 0 88 144 35 0 0 1 11 0 1 78 1 53 16 8 1 1 4 8 6 3 12 12 0 3 7
0 0 0 0 0 0 0 0 0 0 0 0 0 0 0 0 0 0 34 0 0 0 0 0 52 162 10 0 0 0 5 1 26 12 8 85 126 133 12 21 23 11 3 9 3 1 0 0 0
0 0 0 0 0 0 0 0 0 0 0 0 0 0 0 0 0 10 37 0 0 0 0 0 2 118 5 0 0 0 1 1 4 40 21 14 11 15 38 29 5 4 9 2 0 0 0 0 0
0 0 0 0 0 0 0 0 0 0 0 0 0 0 0 0 0 20 0 0 0 0 0 0 0 20 24 0 0 0 0 0 0 2 1 9 2 0 8 18 16 3 7 2 0 0 0 0 0
0 0 0 0 0 0 0 0 0 0 0 0 0 0 0 0 0 0 0 0 0 0 0 0 0 0 14 0 0 0 0 0 0 0 0 0 0 4 11 1 0 3 5 2 0 0 0 0 0
0 0 0 0 0 0 0 0 0 0 0 0 0 0 0 0 0 0 0 0 0 0 0 0 0 0 0 0 0 0 0 0 0 0 0 0 0 0 0 0 0 0 3 0 0 0 0 0 0
0 0 0 0 0 0 0 0 0 0 0 0 0 0 0 0 0 6 3 0 0 0 0 0 0 0 0 0 0 0 0 0 0 0 0 0 0 0 0 0 0 0 1 0 0 0 0 0 0
0 0 0 0 0 0 0 0 0 0 0 0 0 0 0 0 0 19 3 3 2 0 0 0 0 0 0 0 0 0 0 0 0 0 0 0 0 0 0 0 0 0 0 0 0 0 0 0 0
0 0 0 0 0 0 0 0 0 0 0 0 0 0 0 0 0 0 0 0 0 0 0 0 0 0 0 0 0 0 0 0 0 0 0 0 0 0 0 0 0 0 0 0 0 0 0 0 0
0 0 0 0 0 0 0 0 0 0 0 0 0 0 0 0 0 0 0 0 0 0 0 0 0 0 0 0 0 0 0 0 0 0 0 0 0 0 0 0 0 0 0 0 0 0 0 0 0
0 0 0 0 0 0 0 0 0 0 0 0 0 0 0 0 0 0 0 0 0 0 0 1 0 0 0 0 0 0 0 0 0 0 0 0 0 0 0 0 0 0 0 0 0 0 0 0 0
0 0 0 0 0 0 0 0 0 0 0 0 0 0 0 0 0 0 0 0 0 0 0 4 1 3 1 0 0 0 0 0 0 0 0 0 0 0 0 0 0 0 0 0 0 0 0 0 0
0 0 0 0 0 0 0 0 0 0 0 0 0 0 0 0 0 0 1 4 0 0 0 0 5 1 0 0 0 0 0 0 0 0 0 0 0 0 0 0 0 0 0 0 0 0 0 0 0
0 0 0 0 0 0 0 0 0 0 0 0 0 0 0 0 0 0 0 4 0 0 0 0 0 2 1 0 0 0 5 1 0 0 0 0 0 0 0 0 0 0 0 0 0 0 0 0 0
0 0 0 0 0 0 0 0 0 0 0 0 0 0 0 0 0 0 0 0 0 2 8 0 0 0 9 11 12 1 0 1 1 0 0 0 0 0 0 0 0 0 0 0 0 0 0 0 0
0 0 0 0 0 0 0 0 0 0 0 0 0 0 0 0 0 0 0 0 0 0 4 3 0 0 1 7 27 20 7 2 1 0 0 0 0 0 0 0 0 0 0 0 0 0 0 0 0
0 0 0 0 0 0 0 0 0 0 0 0 0 0 0 0 0 0 0 0 0 0 21 19 30 15 16 0 5 7 8 18 0 0 0 0 0 0 0 0 0 0 0 0 0 0 0 0 0
0 0 0 0 0 0 0 0 0 0 0 0 0 0 0 0 0 0 0 0 0 0 13 48 67 38 26 15 0 2 1 6 3 2 0 0 0 0 0 0 0 0 0 0 0 0 0 0 0
0 0 0 0 0 0 0 0 0 0 0 0 0 0 0 0 0 0 0 0 0 0 0 27 64 72 59 37 7 0 0 0 5 6 2 0 0 0 0 0 0 0 0 0 0 0 0 0 0
0 0 0 0 0 0 0 0 0 0 0 0 0 0 0 0 0 0 0 0 0 0 0 2 60 92 87 50 29 19 21 17 0 0 1 6 5 2 1 0 0 0 0 0 0 0 0 0 0
0 0 0 0 0 0 0 0 0 0 0 0 0 0 0 0 0 0 0 0 0 0 0 0 0 49 89 67 50 29 39 17 0 0 0 0 7 13 7 3 0 0 0 0 0 0 0 0 0
0 0 0 0 0 0 0 0 0 0 0 0 0 0 0 0 0 0 0 0 0 0 0 0 0 0 0 39 66 78 81 42 27 26 7 3 4 6 15 12 1 0 0 0 0 0 0 0 0
0 0 0 0 0 0 0 0 0 0 0 0 0 0 0 0 0 0 0 0 0 0 0 0 0 0 0 0 3 58 94 56 70 42 23 21 18 4 7 15 8 4 0 0 0 0 0 0 1
0 0 0 0 0 0 0 0 0 0 0 0 0 0 0 0 0 0 0 0 0 0 0 0 0 0 0 0 0 0 3 28 50 85 79 17 5 10 8 12 8 8 0 3 0 0 0 0 0
0 0 0 0 0 0 0 0 0 0 0 0 0 0 0 0 0 0 0 0 0 0 0 0 0 0 0 0 0 0 0 0 3 31 20 15 1 4 18 17 16 6 0 1 0 0 0 0 0
0 0 0 0 0 0 0 0 0 0 0 0 0 0 0 0 0 0 0 0 0 0 0 0 0 0 0 0 0 0 0 0 0 0 0 0 0 1 8 6 0 0 1 0 0 0 0 0 0
0 0 0 0 0 0 0 0 0 0 0 0 0 0 0 0 0 0 0 0 0 0 0 0 0 0 0 0 0 0 0 0 0 0 0 0 0 0 0 1 1 1 0 1 0 0 0 0 0
0 0 0 0 0 0 0 0 0 0 0 0 0 0 0 0 0 0 0 0 0 0 0 0 0 0 0 0 0 0 0 0 0 0 0 0 0 0 2 0 0 0 1 1 0 0 0 0 0
CIN
-0 -0 -0 -0 -0 -0 -0 -0 -0 -0 -0 -0 -0 -0 -0 -0 -0 -0 -0 -0 -0 -0 -0 -57 -21 -8 -116 -0 -0 -77 -122 -158 -62 -163 -194 -30 -0 -203 -178 -178 -179 -106 -81 -122 -160 -151 -132 -0 -0
-0 -0 -0 -0 -0 -0 -0 -0 -0 -0 -0 -0 -0 -0 -0 -0 -0 -0 -0 -0 -0 -0 -0 -0 -8 -27 -100 -0 -0 -1 -19 -13 -139 -178 -0 -0 -0 -0 -0 -42 -0 -0 -0 -1 -0 -130 -0 -1 -158
-0 -0 -0 -0 -0 -0 -0 -0 -0 -0 -0 -0 -0 -0 -0 -0 -0 -0 -169 -0 -0 -0 -0 -0 -59 -35 -75 -0 -0 -0 -1 -0 -1 -135 -0 -155 -64 -38 -0 -1 -1 -0 -0 -0 -0 -0 -0 -2 -2
-0 -0 -0 -0 -0 -0 -0 -0 -0 -0 -0 -0 -0 -0 -0 -0 -0 -0 -195 -0 -0 -0 -0 -0 -86 -35 -10 -0 -0 -0 -2 -0 -79 -0 -1 -137 -119 -95 -2 -2 -4 -0 -0 -0 -0 -0 -0 -0 -0
-0 -0 -0 -0 -0 -0 -0 -0 -0 -0 -0 -0 -0 -0 -0 -0 -0 -111 -189 -0 -0 -0 -0 -0 -19 -33 -18 -0 -0 -0 -2 -2 -1 -111 -126 -42 -5 -5 -106 -77 -0 -1 -0 -0 -0 -0 -0 -0 -0
-0 -0 -0 -0 -0 -0 -0 -0 -0 -0 -0 -0 -0 -0 -0 -0 -0 -219 -0 -0 -0 -0 -0 -0 -0 -59 -82 -0 -0 -0 -0 -0 -0 -0 -0 -0 -2 -0 -0 -0 -0 -1 -0 -0 -0 -0 -0 -0 -0
-0 -0 -0 -0 -0 -0 -0 -0 -0 -0 -0 -0 -0 -0 -0 -0 -0 -0 -0 -0 -0 -0 -0 -0 -0 -0 -85 -0 -0 -0 -0 -0 -0 -0 -0 -0 -0 -4 -1 -0 -0 -0 -0 -0 -0 -0 -0 -0 -0
-0 -0 -0 -0 -0 -0 -0 -0 -0 -0 -0 -0 -0 -0 -0 -0 -0 -0 -0 -0 -0 -0 -0 -0 -0 -0 -0 -0 -0 -0 -0 -0 -0 -0 -0 -0 -0 -0 -0 -0 -0 -0 -0 -0 -0 -0 -0 -0 -0
-0 -0 -0 -0 -0 -0 -0 -0 -0 -0 -0 -0 -0 -0 -0 -0 -0 -55 -16 -0 -0 -0 -0 -0 -0 -0 -0 -0 -0 -0 -0 -0 -0 -0 -0 -0 -0 -0 -0 -0 -0 -0 -0 -0 -0 -0 -0 -0 -0
-0 -0 -0 -0 -0 -0 -0 -0 -0 -0 -0 -0 -0 -0 -0 -0 -0 -283 -18 -30 -24 -0 -0 -0 -0 -0 -0 -0 -0 -0 -0 -0 -0 -0 -0 -0 -0 -0 -0 -0 -0 -0 -0 -0 -0 -0 -0 -0 -0
-0 -0 -0 -0 -0 -0 -0 -0 -0 -0 -0 -0 -0 -0 -0 -0 -0 -0 -0 -0 -0 -0 -0 -0 -0 -0 -0 -0 -0 -0 -0 -0 -0 -0 -0 -0 -0 -0 -0 -0 -0 -0 -0 -0 -0 -0 -0 -0 -0
-0 -0 -0 -0 -0 -0 -0 -0 -0 -0 -0 -0 -0 -0 -0 -0 -0 -17 -0 -0 -0 -0 -0 -0 -0 -0 -0 -0 -0 -0 -0 -0 -0 -0 -0 -0 -0 -0 -0 -0 -0 -0 -0 -0 -0 -0 -0 -0 -0
-0 -0 -0 -0 -0 -0 -0 -0 -0 -0 -0 -0 -0 -0 -0 -0 -0 -0 -0 -0 -0 -0 -0 -11 -0 -0 -0 -0 -0 -0 -0 -0 -0 -0 -0 -0 -0 -0 -0 -0 -0 -0 -0 -0 -0 -0 -0 -0 -0
-0 -0 -0 -0 -0 -0 -0 -0 -0 -0 -0 -0 -0 -0 -0 -0 -0 -0 -0 -0 -0 -0 -0 -8 -12 -27 -28 -0 -0 -0 -0 -0 -0 -0 -0 -0 -0 -0 -0 -0 -0 -0 -0 -0 -0 -0 -0 -0 -0
-0 -0 -0 -0 -0 -0 -0 -0 -0 -0 -0 -0 -0 -0 -0 -0 -0 -0 -277 -416 -0 -0 -0 -0 -5 -8 -16 -0 -3 -14 -0 -0 -0 -0 -0 -0 -0 -0 -0 -0 -0 -0 -0 -0 -0 -0 -0 -0 -0
-0 -0 -0 -0 -0 -0 -0 -0 -0 -0 -0 -0 -0 -0 -0 -0 -0 -0 -0 -450 -0 -0 -0 -1 -0 -6 -6 -13 -1 -0 -19 -26 -0 -12 -0 -0 -0 -0 -0 -0 -0 -0 -0 -0 -0 -0 -0 -0 -0
-0 -0 -0 -0 -0 -0 -0 -0 -0 -0 -0 -0 -0 -0 -0 -0 -0 -0 -0 -0 -0 -126 -508 -0 -0 -0 -442 -415 -347 -13 -12 -17 -19 -11 -0 -0 -0 -0 -0 -0 -0 -0 -0 -0 -0 -0 -0 -0 -0
-0 -0 -0 -0 -0 -0 -0 -0 -0 -0 -0 -0 -0 -0 -0 -0 -0 -0 -0 -0 -0 -0 -575 -384 -0 -0 -106 -460 -409 -409 -334 -15 -19 -7 -0 -0 -0 -0 -0 -0 -0 -0 -0 -0 -0 -0 -0 -0 -0
-0 -0 -0 -0 -0 -0 -0 -0 -0 -0 -0 -0 -0 -0 -0 -0 -0 -0 -0 -0 -0 -0 -564 -514 -492 -544 -519 -0 -509 -461 -385 -412 -17 -6 -2 -0 -0 -0 -0 -0 -0 -0 -0 -0 -0 -0 -0 -0 -0
-0 -0 -0 -0 -0 -0 -0 -0 -0 -0 -0 -0 -0 -0 -0 -0 -0 -0 -0 -0 -0 -0 -641 -575 -519 -508 -524 -526 -0 -289 -1 -318 -137 -26 -5 -21 -0 -0 -0 -0 -0 -0 -0 -0 -0 -0 -0 -0 -0
-0 -0 -0 -0 -0 -0 -0 -0 -0 -0 -0 -0 -0 -0 -0 -0 -0 -0 -0 -0 -0 -0 -0 -617 -549 -511 -503 -476 -554 -0 -35 -2 -487 -461 -21 -11 -7 -5 -0 -0 -0 -0 -0 -0 -0 -0 -0 -0 -0
-0 -0 -0 -0 -0 -0 -0 -0 -0 -0 -0 -0 -0 -0 -0 -0 -0 -0 -0 -0 -0 -0 -0 -125 -523 -465 -472 -475 -493 -483 -443 -460 -254 -0 -86 -21 -31 -37 -48 -0 -0 -0 -0 -0 -0 -0 -0 -0 -0
-0 -0 -0 -0 -0 -0 -0 -0 -0 -0 -0 -0 -0 -0 -0 -0 -0 -0 -0 -0 -0 -0 -0 -0 -0 -524 -460 -451 -444 -420 -368 -403 -0 -0 -0 -0 -24 -31 -42 -56 -2 -0 -0 -0 -0 -0 -0 -0 -0
-0 -0 -0 -0 -0 -0 -0 -0 -0 -0 -0 -0 -0 -0 -0 -0 -0 -0 -0 -0 -0 -0 -0 -0 -0 -0 -0 -469 -405 -383 -328 -353 -335 -315 -346 -356 -135 -35 -34 -38 -39 -0 -0 -0 -0 -0 -0 -0 -0
-0 -0 -0 -0 -0 -0 -0 -0 -0 -0 -0 -0 -0 -0 -0 -0 -0 -0 -0 -0 -0 -0 -0 -0 -0 -0 -0 -0 -195 -360 -303 -306 -239 -245 -289 -281 -296 -32 -36 -43 -54 -88 -40 -0 -48 -0 -0 -0 -0
-0 -0 -0 -0 -0 -0 -0 -0 -0 -0 -0 -0 -0 -0 -0 -0 -0 -0 -0 -0 -0 -0 -0 -0 -0 -0 -0 -0 -0 -0 -47 -328 -294 -223 -238 -344 -384 -361 -33 -46 -51 -62 -0 -81 -0 -0 -0 -0 -0
-0 -0 -0 -0 -0 -0 -0 -0 -0 -0 -0 -0 -0 -0 -0 -0 -0 -0 -0 -0 -0 -0 -0 -0 -0 -0 -0 -0 -0 -0 -0 -0 -155 -298 -289 -275 -10 -34 -44 -40 -35 -47 -51 -69 -0 -0 -0 -0 -0
-0 -0 -0 -0 -0 -0 -0 -0 -0 -0 -0 -0 -0 -0 -0 -0 -0 -0 -0 -0 -0 -0 -0 -0 -0 -0 -0 -0 -0 -0 -0 -0 -0 -0 -0 -0 -0 -44 -49 -42 -17 -0 -0 -0 -0 -0 -0 -0 -0
-0 -0 -0 -0 -0 -0 -0 -0 -0 -0 -0 -0 -0 -0 -0 -0 -0 -0 -0 -0 -0 -0 -0 -0 -0 -0 -0 -0 -0 -0 -0 -0 -0 -0 -0 -0 -0 -0 -0 -0 -0 -0 -0 -0 -0 -0 -0 -0 -0
-0 -0 -0 -0 -0 -0 -0 -0 -0 -0 -0 -0 -0 -0 -0 -0 -0 -0 -0 -0 -0 -0 -0 -0 -0 -0 -0 -0 -0 -0 -0 -0 -0 -0 -0 -0 -0 -0 -0 -0 -0 -0 -0 -0 -0 -0 -0 -0 -0
Wind_Speed
21 20 17 15 14 11 10 8 4 8 6 15 14 16 21 16 21 21 25 28 29 29 28 27 27 27 28 28 28 28 28 29 29 30 30 30 29 27 24 22 23 23 23 23 24 25 23 24 25
20 18 15 14 13 12 13 6 6 5 6 2 9 14 11 17 17 25 29 28 27 28 27 27 27 27 27 27 28 28 28 28 28 28 28 27 27 27 26 25 25 26 25 25 25 24 24 25 26
19 17 16 15 13 13 10 2 2 3 14 16 14 12 16 19 22 27 24 27 26 26 26 26 26 26 26 26 27 27 27 27 27 27 27 28 27 26 25 25 24 24 25 24 24 24 24 25 25
18 17 15 19 19 18 13 8 4 3 12 15 11 9 14 19 25 22 25 24 25 24 24 25 25 25 25 25 25 26 25 26 24 25 26 26 26 26 26 26 25 25 25 25 25 25 24 24 25
16 17 20 20 22 19 9 3 0 3 10 9 16 10 13 13 14 22 23 22 22 23 23 24 24 24 24 24 25 25 24 24 24 24 24 24 24 24 25 25 25 25 25 25 24 24 24 23 24
17 17 20 26 21 15 8 11 2 5 8 11 9 7 12 5 16 19 21 21 21 22 22 22 23 23 23 23 23 23 23 23 23 23 22 23 24 24 24 23 24 24 24 24 23 24 24 25 25
18 19 23 21 21 14 14 15 7 2 4 12 3 8 13 9 14 18 20 20 20 20 21 21 22 23 22 22 22 22 23 22 22 22 21 21 22 21 22 22 22 23 23 23 23 23 23 24 24
17 19 21 22 22 17 17 15 12 2 6 8 10 10 9 14 14 16 18 18 19 20 20 21 21 22 21 21 21 21 21 21 21 21 21 21 20 20 20 20 20 20 21 21 21 22 22 23 24
17 21 24 23 18 19 16 15 15 15 9 14 15 7 8 17 14 15 16 16 17 19 19 20 21 21 21 20 20 19 19 20 20 20 20 20 19 19 19 19 19 19 19 20 20 21 21 22 23
21 23 23 22 24 22 17 15 12 14 11 14 13 11 9 16 15 15 16 16 18 19 20 20 20 20 20 19 19 19 19 18 19 19 19 18 18 19 19 19 19 19 19 19 19 19 19 20 21
22 24 21 22 24 21 14 15 16 10 14 13 2 5 12 15 15 16 16 17 18 19 19 20 20 20 19 19 19 19 19 18 18 19 18 18 18 18 18 17 17 17 17 17 17 17 17 17 18
24 26 23 23 23 18 14 15 17 15 19 12 4 11 13 16 19 18 17 17 18 17 19 18 19 19 18 17 17 17 17 17 16 17 16 15 15 15 15 15 14 14 14 14 15 15 16 16 16
25 24 22 22 20 19 15 17 18 19 18 9 3 6 12 15 17 16 19 17 18 16 16 18 18 17 17 16 15 14 14 14 14 13 13 12 12 12 12 12 11 12 12 12 12 13 13 14 14
23 24 23 22 21 19 18 18 17 20 16 6 6 8 10 13 16 14 17 22 20 18 16 16 16 16 14 14 13 12 11 10 10 10 9 9 9 9 9 9 8 8 8 9 9 10 11 12 12
30 31 25 23 22 21 19 21 24 19 15 8 7 6 6 9 7 19 19 21 20 18 17 16 16 13 13 12 11 9 8 7 6 6 6 5 6 5 5 5 5 6 6 7 8 9 10 10 11
32 30 34 25 22 24 22 27 26 21 17 16 11 10 8 6 11 20 17 19 15 15 17 16 14 15 12 9 7 5 5 4 3 3 3 3 2 1 2 2 3 4 5 6 7 8 9 10 10
19 29 34 34 23 24 24 26 24 23 21 19 17 14 13 15 10 10 14 17 16 14 14 14 14 14 12 8 6 6 4 3 3 3 3 3 3 3 4 5 5 4 5 7 8 9 10 11 12
19 22 28 34 29 26 26 30 26 25 25 23 21 23 24 24 18 13 12 13 12 11 12 12 11 11 10 10 7 6 6 6 6 5 6 5 6 6 6 6 6 6 6 7 8 9 11 14 14
14 18 23 30 27 29 32 34 34 30 28 29 30 29 29 30 28 21 11 10 9 9 10 10 10 9 8 9 8 9 10 8 8 9 9 8 8 8 8 8 8 8 8 9 9 12 13 15 17
18 19 23 26 24 28 31 39 39 37 37 33 32 33 34 32 31 28 17 14 12 12 11 11 11 10 10 9 9 9 9 10 12 11 11 11 10 10 10 11 11 11 11 11 11 12 16 16 15
21 19 18 22 25 26 29 38 40 37 37 37 37 37 36 32 31 25 21 16 13 12 12 12 12 11 10 10 9 10 10 12 13 14 14 13 13 12 13 13 14 14 15 14 13 13 15 18 17
26 20 18 16 19 29 27 40 33 33 36 35 38 39 37 32 29 27 24 19 16 13 13 13 12 11 11 11 11 12 12 13 13 14 15 15 15 16 15 16 15 15 15 16 16 15 16 19 20
30 20 17 18 21 24 26 32 33 31 34 35 33 33 36 31 26 27 25 26 22 16 16 15 14 14 14 13 13 13 15 16 17 16 16 16 17 16 17 17 17 17 17 17 17 17 16 17 19
17 18 18 21 25 35 30 32 37 33 34 32 29 30 31 26 24 24 24 21 20 18 16 16 16 17 16 15 15 15 15 16 17 16 16 17 17 17 17 17 17 17 18 18 17 17 17 18 18
22 20 25 28 29 32 27 32 44 30 32 28 27 27 24 21 20 18 17 17 18 17 18 19 18 18 18 18 16 15 16 16 16 16 16 17 17 17 17 15 16 17 17 17 17 17 18 18 19
24 24 26 31 33 34 28 37 36 33 33 33 27 20 17 15 14 14 15 15 17 18 19 22 22 22 21 18 17 17 15 15 15 15 16 16 17 17 18 17 17 17 16 16 16 17 18 17 18
28 32 25 26 25 28 28 32 35 32 31 26 24 21 19 17 17 15 15 16 15 15 16 17 17 17 17 16 16 16 15 15 15 15 17 18 17 18 18 18 18 18 17 18 18 19 20 17 18
30 23 31 31 33 36 32 34 31 28 30 28 25 23 22 20 18 16 15 14 14 13 13 13 13 14 15 15 14 14 14 15 15 16 17 17 18 19 18 18 18 18 18 17 17 18 17 18 18
28 32 30 29 32 33 35 35 30 27 28 28 26 23 20 19 17 15 13 12 12 12 13 14 14 15 15 14 14 14 14 13 13 13 15 17 18 18 18 17 17 18 18 16 16 17 16 17 18
33 34 34 38 34 34 37 43 25 28 26 24 24 22 20 15 15 15 15 14 14 15 15 15 15 16 16 15 15 15 13 13 13 16 16 16 16 16 16 16 16 15 15 16 16 16 17 18 20
Wind_Direction
271 273 278 272 276 295 279 295 321 51 298 209 204 146 94 183 141 107 146 132 115 118 119 120 116 113 105 100 103 106 101 98 85 80 85 78 73 70 54 46 45 44 45 44 48 46 34 35 42
275 276 280 271 273 275 274 297 79 327 49 292 229 211 233 187 182 127 121 124 114 115 117 117 114 108 105 100 100 102 94 95 86 84 76 68 67 68 64 61 60 59 53 54 52 45 35 41 47
279 276 271 264 272 278 277 293 326 335 222 222 231 227 210 190 157 115 117 118 110 111 115 116 112 110 106 101 97 98 92 88 92 76 81 80 73 71 60 62 59 57 54 52 51 46 41 40 46
275 271 271 254 254 265 263 111 78 47 241 231 238 273 228 191 118 112 112 111 111 109 114 117 114 110 108 103 98 95 88 87 71 75 81 75 70 67 67 65 60 57 60 59 55 49 42 37 41
274 264 254 250 248 259 255 121 7 52 261 266 236 265 243 80 72 106 112 111 110 110 114 116 118 109 107 106 103 99 93 86 73 71 75 72 67 69 64 65 65 67 61 61 51 43 40 33 36
265 260 249 240 248 257 243 247 273 284 264 265 276 284 257 330 100 113 112 112 111 112 113 116 116 115 111 107 105 103 99 91 85 76 71 69 72 77 77 69 64 64 60 57 49 44 46 41 39
257 251 246 245 244 245 249 244 264 299 282 265 309 291 266 86 107 114 114 109 111 113 113 117 117 122 118 112 108 105 105 96 90 85 76 71 71 58 68 67 66 66 65 61 56 48 46 42 39
260 253 248 245 244 250 250 249 258 266 267 269 277 289 287 122 111 113 113 112 113 118 119 121 120 122 118 117 111 107 104 103 95 90 86 80 73 71 71 68 66 67 68 63 59 54 52 45 41
259 251 246 245 250 250 247 253 251 261 264 263 265 311 305 126 114 115 115 115 116 122 125 126 126 126 122 119 118 112 105 104 101 94 89 82 76 71 70 70 67 70 69 69 69 65 57 48 42
252 248 249 253 254 249 246 250 250 257 259 268 273 287 100 127 127 127 126 126 129 132 133 134 132 131 126 125 122 120 115 112 110 105 101 94 91 87 85 78 75 76 77 76 71 68 63 56 48
253 248 256 258 257 251 240 247 256 249 259 265 246 115 121 133 136 137 136 137 137 137 136 139 139 137 135 131 130 128 126 123 124 120 110 105 101 98 92 84 81 81 79 77 71 67 64 61 56
253 251 257 264 261 248 242 247 253 252 264 271 169 135 132 141 149 148 147 145 141 138 146 143 144 143 143 136 137 133 130 128 126 126 119 107 103 99 97 92 87 84 79 76 69 61 59 55 53
253 252 258 265 261 248 250 250 252 253 263 264 179 150 143 145 151 151 155 152 150 146 145 150 149 149 146 145 140 138 136 133 129 123 120 106 111 101 93 91 87 86 79 76 68 57 53 50 45
252 254 256 263 258 250 250 253 254 254 264 243 175 155 151 151 155 153 158 166 165 160 154 154 154 154 150 151 147 145 140 138 135 128 126 115 112 103 96 86 83 79 78 69 62 48 44 39 35
252 252 255 258 255 251 253 256 250 257 257 241 214 208 184 162 163 167 168 171 170 169 166 164 164 158 158 159 157 151 151 147 147 144 133 125 127 105 88 73 67 69 65 50 40 27 26 24 22
245 250 244 251 251 252 251 251 252 255 252 254 244 245 244 216 177 178 174 177 172 173 178 174 173 174 174 173 170 166 164 168 172 174 170 164 160 104 20 10 19 23 22 20 13 10 7 5 4
254 246 243 246 250 252 250 253 255 259 255 256 257 254 254 265 259 194 183 184 183 182 182 184 183 184 187 193 198 198 212 237 259 253 246 238 248 283 306 316 325 337 343 344 346 346 347 346 346
253 254 247 244 247 252 254 254 258 264 257 257 259 262 265 267 269 263 200 195 193 193 193 193 195 197 197 201 229 247 238 255 266 261 268 261 277 281 288 293 300 307 315 319 326 327 331 334 335
257 256 257 250 253 252 253 255 258 262 262 259 261 263 265 266 270 275 248 230 230 220 217 213 211 212 216 214 232 240 237 258 270 278 277 279 275 273 277 284 289 294 296 304 312 320 321 324 332
256 256 259 259 256 254 258 255 257 260 260 262 263 264 265 269 271 274 270 266 239 232 229 228 226 231 228 238 251 247 260 270 282 282 281 282 280 276 282 285 287 290 294 299 301 308 318 319 326
251 255 263 260 257 260 263 261 257 260 263 263 264 266 267 271 274 277 276 267 265 256 238 240 234 235 241 245 267 284 286 287 288 288 285 284 283 282 283 285 286 290 294 293 296 301 306 310 319
247 255 263 262 256 256 259 260 263 264 263 265 264 265 268 271 273 275 277 279 267 259 269 255 250 246 248 250 262 261 269 277 277 287 291 288 285 287 287 287 287 286 288 291 292 297 302 308 310
251 251 256 259 262 264 263 264 263 265 265 265 268 271 270 272 272 275 277 280 280 273 276 277 273 268 270 263 262 267 275 286 294 293 293 295 295 288 285 284 283 286 289 290 295 296 296 300 308
247 244 258 263 264 260 260 263 261 262 266 272 275 276 274 278 279 277 279 281 282 282 281 284 287 285 281 272 268 267 273 283 288 292 294 298 299 300 295 289 286 286 288 287 290 295 297 301 302
240 237 253 257 258 261 264 264 250 263 265 271 279 280 281 283 285 288 285 284 283 283 285 287 290 290 291 290 281 271 273 277 280 285 292 296 299 301 301 294 293 293 289 291 293 294 300 302 304
232 236 249 254 257 261 263 258 260 260 264 269 278 287 292 292 295 296 295 293 292 291 290 292 293 292 293 290 286 287 280 281 281 285 295 298 303 304 307 303 301 300 299 297 299 300 303 307 308
239 242 251 261 266 267 266 267 266 263 264 272 275 279 284 288 297 299 300 299 298 298 300 300 301 304 304 301 296 291 291 288 289 292 297 301 307 310 311 310 307 307 307 307 306 306 306 312 315
244 241 247 254 257 262 267 266 268 265 263 266 272 275 279 287 296 301 302 300 302 306 308 310 314 315 316 316 314 311 307 302 302 303 304 305 308 313 313 313 313 314 314 315 315 315 317 319 322
240 240 249 254 257 263 267 269 268 268 269 270 270 277 283 289 299 303 304 305 306 307 308 309 309 311 312 315 316 317 317 316 316 315 316 315 315 315 316 318 320 319 320 321 322 324 324 324 324
246 246 243 250 257 263 268 265 274 273 272 278 280 283 289 299 303 303 301 300 299 300 301 302 305 307 308 311 311 314 319 322 321 321 324 325 326 325 324 325 325 327 328 328 327 326 326 324 324